| time (UTC) | temp C | wind direction | speed KPH | gust KPH | rain 1hr cm | rain 24hr cm | rain mn cm | humidity % | barometer mb |
| 20260902014528 | 20 | 124 | 0.0 | 8.0 | 0.00 | 0.00 | 0.00 | 57 | 1015.6 |
| 20260902013016 | 21 | 72 | 3.2 | 12.9 | 0.00 | 0.00 | 0.00 | 53 | 1015.6 |
| 20260902011546 | 21 | 62 | 0.0 | 8.0 | 0.00 | 0.00 | 0.00 | 55 | 1015.7 |
| 20260902010026 | 21 | 72 | 8.0 | 24.1 | 0.00 | 0.00 | 0.00 | 53 | 1015.6 |
| 20260902004600 | 22 | 84 | 6.4 | 17.7 | 0.00 | 0.00 | 0.00 | 51 | 1015.5 |
| 20260902003032 | 22 | 343 | 4.8 | 19.3 | 0.00 | 0.00 | 0.00 | 52 | 1015.5 |
| 20260902001622 | 22 | 78 | 0.0 | 17.7 | 0.00 | 0.00 | 0.00 | 53 | 1015.4 |
| 20260902000040 | 22 | 296 | 0.0 | 16.1 | 0.00 | 0.00 | 0.00 | 51 | 1015.5 |
| 20260901234506 | 23 | 281 | 6.4 | 14.5 | 0.00 | 0.00 | 0.00 | 48 | 1015.6 |
| 20260901233052 | 22 | 189 | 0.0 | 19.3 | 0.00 | 0.00 | 0.00 | 50 | 1015.6 |
| 20260901231527 | 22 | 69 | 6.4 | 16.1 | 0.00 | 0.00 | 0.00 | 50 | 1015.7 |
| 20260901230046 | 22 | 37 | 6.4 | 19.3 | 0.00 | 0.00 | 0.00 | 47 | 1015.8 |
| 20260901224510 | 23 | 101 | 3.2 | 17.7 | 0.00 | 0.00 | 0.00 | 45 | 1015.8 |
| 20260901223059 | 23 | 316 | 1.6 | 11.3 | 0.00 | 0.00 | 0.00 | 47 | 1015.8 |
| 20260901221522 | 22 | 120 | 6.4 | 17.7 | 0.00 | 0.00 | 0.00 | 47 | 1015.9 |
| 20260901220106 | 23 | 138 | 0.0 | 24.1 | 0.00 | 0.00 | 0.00 | 48 | 1016.0 |
| 20260901214515 | 23 | 62 | 1.6 | 12.9 | 0.00 | 0.00 | 0.00 | 48 | 1016.2 |
| 20260901213107 | 23 | 186 | 3.2 | 12.9 | 0.00 | 0.00 | 0.00 | 47 | 1016.3 |
| 20260901211540 | 22 | 96 | 4.8 | 19.3 | 0.00 | 0.00 | 0.00 | 48 | 1016.1 |
| 20260901204542 | 22 | 109 | 0.0 | 12.9 | 0.00 | 0.00 | 0.00 | 47 | 1016.0 |
| 20260901203024 | 21 | 76 | 4.8 | 16.1 | 0.00 | 0.00 | 0.00 | 52 | 1016.1 |
| 20260901201602 | 21 | 28 | 9.7 | 19.3 | 0.00 | 0.00 | 0.00 | 52 | 1016.5 |
| 20260901200041 | 21 | 79 | 9.7 | 20.9 | 0.00 | 0.00 | 0.00 | 49 | 1016.6 |
| 20260901194607 | 22 | 251 | 0.0 | 11.3 | 0.00 | 0.00 | 0.00 | 49 | 1016.6 |
| 20260901193028 | 21 | 43 | 3.2 | 19.3 | 0.00 | 0.00 | 0.00 | 51 | 1016.6 |
| 20260901191555 | 21 | 133 | 9.7 | 20.9 | 0.00 | 0.00 | 0.00 | 52 | 1016.8 |
| 20260901190012 | 21 | 129 | 6.4 | 16.1 | 0.00 | 0.00 | 0.00 | 54 | 1016.8 |
| 20260901184544 | 21 | 230 | 0.0 | 8.0 | 0.00 | 0.00 | 0.00 | 54 | 1016.8 |
| 20260901183050 | 20 | 157 | 0.0 | 9.7 | 0.00 | 0.00 | 0.00 | 56 | 1016.7 |
| 20260901181518 | 20 | 38 | 1.6 | 12.9 | 0.00 | 0.00 | 0.00 | 58 | 1016.7 |
| 20260901180049 | 19 | 245 | 3.2 | 16.1 | 0.00 | 0.00 | 0.00 | 60 | 1016.6 |
| 20260901174513 | 18 | 126 | 4.8 | 16.1 | 0.00 | 0.00 | 0.00 | 62 | 1016.5 |
| 20260901173102 | 18 | 57 | 3.2 | 12.9 | 0.00 | 0.00 | 0.00 | 64 | 1016.5 |
| 20260901171542 | 18 | 309 | 1.6 | 14.5 | 0.00 | 0.00 | 0.00 | 65 | 1016.5 |
| 20260901170016 | 18 | 351 | 1.6 | 12.9 | 0.00 | 0.00 | 0.00 | 66 | 1016.4 |
| 20260901164552 | 17 | 64 | 1.6 | 8.0 | 0.00 | 0.00 | 0.00 | 68 | 1016.2 |
| 20260901163016 | 17 | 76 | 4.8 | 14.5 | 0.00 | 0.00 | 0.00 | 71 | 1016.2 |
| 20260901161607 | 17 | 112 | 3.2 | 11.3 | 0.00 | 0.00 | 0.00 | 72 | 1016.2 |
| 20260901160031 | 17 | 79 | 1.6 | 12.9 | 0.00 | 0.00 | 0.00 | 74 | 1016.0 |
| 20260901154609 | 16 | 5 | 0.0 | 14.5 | 0.00 | 0.00 | 0.00 | 75 | 1015.8 |
| 20260901153048 | 16 | 86 | 0.0 | 12.9 | 0.00 | 0.00 | 0.00 | 77 | 1015.8 |
| 20260901151512 | 16 | 77 | 0.0 | 12.9 | 0.00 | 0.00 | 0.00 | 78 | 1015.6 |
| 20260901150041 | 16 | 92 | 3.2 | 9.7 | 0.00 | 0.00 | 0.00 | 78 | 1015.6 |
| 20260901144513 | 16 | 98 | 0.0 | 3.2 | 0.00 | 0.00 | 0.00 | 78 | 1015.4 |
| 20260901143011 | 16 | 99 | 0.0 | 0.0 | 0.00 | 0.00 | 0.00 | 77 | 1015.1 |
| 20260901141545 | 16 | 99 | 0.0 | 11.3 | 0.00 | 0.00 | 0.00 | 77 | 1015.0 |
| 20260901140113 | 16 | 102 | 0.0 | 0.0 | 0.00 | 0.00 | 0.00 | 78 | 1014.7 |
| 20260901134602 | 15 | 102 | 0.0 | 0.0 | 0.00 | 0.00 | 0.00 | 78 | 1014.8 |
| 20260901133021 | 16 | 102 | 0.0 | 0.0 | 0.00 | 0.00 | 0.00 | 78 | 1014.6 |
| 20260901131601 | 16 | 102 | 0.0 | 0.0 | 0.00 | 0.00 | 0.00 | 78 | 1014.4 |
| 20260901130030 | 16 | 102 | 0.0 | 9.7 | 0.00 | 0.00 | 0.00 | 78 | 1014.4 |
| 20260901124528 | 16 | 102 | 0.0 | 8.0 | 0.00 | 0.00 | 0.00 | 78 | 1014.3 |
| 20260901123012 | 15 | 182 | 0.0 | 12.9 | 0.00 | 0.00 | 0.00 | 78 | 1014.2 |
| 20260901121546 | 15 | 109 | 0.0 | 0.0 | 0.00 | 0.00 | 0.00 | 78 | 1014.1 |
| 20260901120010 | 16 | 104 | 0.0 | 0.0 | 0.00 | 0.00 | 0.00 | 77 | 1014.0 |
| 20260901114622 | 16 | 105 | 0.0 | 9.7 | 0.00 | 0.00 | 0.00 | 77 | 1014.1 |
| 20260901113109 | 16 | 105 | 0.0 | 6.4 | 0.00 | 0.00 | 0.00 | 77 | 1014.2 |
| 20260901111528 | 16 | 102 | 0.0 | 11.3 | 0.00 | 0.00 | 0.00 | 76 | 1014.3 |
| 20260901110105 | 16 | 71 | 0.0 | 14.5 | 0.00 | 0.00 | 0.00 | 76 | 1014.3 |
| 20260901104535 | 16 | 91 | 3.2 | 12.9 | 0.00 | 0.00 | 0.00 | 75 | 1014.1 |
| 20260901103001 | 16 | 103 | 0.0 | 8.0 | 0.00 | 0.00 | 0.00 | 75 | 1014.0 |
| 20260901101535 | 16 | 121 | 0.0 | 8.0 | 0.00 | 0.00 | 0.00 | 75 | 1014.0 |
| 20260901100105 | 16 | 70 | 0.0 | 0.0 | 0.00 | 0.00 | 0.00 | 75 | 1014.0 |
| 20260901094539 | 16 | 70 | 0.0 | 8.0 | 0.00 | 0.00 | 0.00 | 75 | 1014.0 |
| 20260901093006 | 16 | 144 | 0.0 | 0.0 | 0.00 | 0.00 | 0.00 | 75 | 1014.2 |
| 20260901091530 | 16 | 153 | 0.0 | 0.0 | 0.00 | 0.00 | 0.00 | 75 | 1014.2 |
| 20260901090007 | 16 | 108 | 0.0 | 0.0 | 0.00 | 0.00 | 0.00 | 75 | 1014.2 |
| 20260901084543 | 15 | 99 | 0.0 | 11.3 | 0.00 | 0.00 | 0.00 | 75 | 1014.1 |
| 20260901083007 | 15 | 58 | 0.0 | 6.4 | 0.00 | 0.00 | 0.00 | 74 | 1014.0 |
| 20260901081551 | 15 | 86 | 1.6 | 9.7 | 0.00 | 0.00 | 0.00 | 74 | 1014.1 |
| 20260901080025 | 15 | 99 | 0.0 | 6.4 | 0.00 | 0.00 | 0.00 | 74 | 1013.9 |
| 20260901074547 | 15 | 69 | 0.0 | 14.5 | 0.00 | 0.00 | 0.00 | 74 | 1013.9 |
| 20260901073105 | 15 | 14 | 6.4 | 19.3 | 0.00 | 0.00 | 0.00 | 74 | 1013.9 |
| 20260901071524 | 15 | 78 | 0.0 | 17.7 | 0.00 | 0.00 | 0.00 | 73 | 1014.0 |
| 20260901070010 | 15 | 52 | 1.6 | 16.1 | 0.00 | 0.00 | 0.00 | 73 | 1014.0 |
| 20260901064556 | 15 | 83 | 0.0 | 8.0 | 0.00 | 0.00 | 0.00 | 74 | 1014.0 |
| 20260901063027 | 15 | 76 | 3.2 | 11.3 | 0.00 | 0.00 | 0.00 | 74 | 1014.0 |
| 20260901061602 | 15 | 82 | 6.4 | 17.7 | 0.00 | 0.00 | 0.00 | 74 | 1014.2 |
| 20260901060042 | 15 | 121 | 3.2 | 17.7 | 0.00 | 0.00 | 0.00 | 74 | 1014.3 |
| 20260901054505 | 15 | 88 | 0.0 | 16.1 | 0.00 | 0.00 | 0.00 | 74 | 1014.3 |
| 20260901053057 | 15 | 332 | 0.0 | 12.9 | 0.00 | 0.00 | 0.00 | 74 | 1014.1 |
| 20260901051514 | 15 | 28 | 0.0 | 11.3 | 0.00 | 0.00 | 0.00 | 74 | 1014.1 |
| 20260901050053 | 15 | 96 | 0.0 | 12.9 | 0.00 | 0.00 | 0.00 | 74 | 1014.0 |
| 20260901044541 | 15 | 75 | 3.2 | 14.5 | 0.00 | 0.00 | 0.00 | 74 | 1014.0 |
| 20260901043002 | 15 | 50 | 3.2 | 25.7 | 0.00 | 0.00 | 0.00 | 74 | 1014.0 |
| 20260901041546 | 15 | 83 | 3.2 | 17.7 | 0.00 | 0.00 | 0.00 | 74 | 1013.9 |
| 20260901040006 | 15 | 113 | 4.8 | 17.7 | 0.00 | 0.00 | 0.00 | 74 | 1013.7 |
| 20260901034558 | 15 | 107 | 1.6 | 17.7 | 0.00 | 0.00 | 0.00 | 74 | 1013.6 |
| 20260901033056 | 15 | 148 | 0.0 | 14.5 | 0.00 | 0.00 | 0.00 | 74 | 1013.4 |
| 20260901031510 | 16 | 96 | 1.6 | 17.7 | 0.00 | 0.00 | 0.00 | 74 | 1013.3 |
| 20260901030103 | 16 | 85 | 0.0 | 17.7 | 0.00 | 0.00 | 0.00 | 74 | 1013.2 |
| 20260901024523 | 16 | 103 | 8.0 | 27.4 | 0.00 | 0.00 | 0.00 | 73 | 1013.2 |
| 20260901023004 | 16 | 76 | 3.2 | 16.1 | 0.00 | 0.00 | 0.00 | 73 | 1013.1 |
| 20260901021600 | 16 | 122 | 0.0 | 8.0 | 0.00 | 0.00 | 0.00 | 72 | 1013.1 |
| 20260901020016 | 16 | 95 | 3.2 | 16.1 | 0.00 | 0.00 | 0.00 | 72 | 1013.0 |